This is the latest recevied weather packets stored in our database for station/object KA9CBS. If no packets are shown the sender has not sent any weather packets the latest 10 day(s).
| Time | Temp. | Humidity | Pressure | Rain* | Wind** | Luminosity | Snow |
|---|---|---|---|---|---|---|---|
| 1787412054 | 26.67° C | 85% | 1018 hPa | 0 mm | - | 323 W/m² | - |
| 1787411751 | 26.67° C | 86% | 1018.2 hPa | 0 mm | - | 486 W/m² | - |
| 1787411446 | 26.11° C | 85% | 1018 hPa | 0 mm | - | 458 W/m² | - |
| 1787411142 | 26.11° C | 85% | 1018.3 hPa | 0 mm | - | 304 W/m² | - |
| 1787410837 | 26.11° C | 86% | 1018 hPa | 0 mm | - | 258 W/m² | - |
| 1787410533 | 26.11° C | 86% | 1017.9 hPa | 0 mm | - | 471 W/m² | - |
| 1787410228 | 26.67° C | 84% | 1017.7 hPa | 0 mm | - | 490 W/m² | - |
| 1787409924 | 26.11° C | 86% | 1017.7 hPa | 0 mm | - | 430 W/m² | - |
| 1787409620 | 25.56° C | 86% | 1017.5 hPa | 0 mm | - | 435 W/m² | - |
| 1787409315 | 25.56° C | 85% | 1017.6 hPa | 0 mm | - | 439 W/m² | - |
| 1787409011 | 25.56° C | 86% | 1017.4 hPa | 0 mm | - | 383 W/m² | - |
| 1787408706 | 25.56° C | 85% | 1017.6 hPa | 0 mm | - | 345 W/m² | - |
| 1787408401 | 25.56° C | 86% | 1017.4 hPa | 0 mm | - | 328 W/m² | - |
| 1787408097 | 25.56° C | 86% | 1017.1 hPa | 0 mm | - | 318 W/m² | - |
| 1787407792 | 25.56° C | 85% | 1017.6 hPa | 0 mm | - | 271 W/m² | - |
| 1787407488 | 25.56° C | 85% | 1017.4 hPa | 0 mm | - | 278 W/m² | - |
| 1787407188 | 26.11° C | 85% | 1017.4 hPa | 0 mm | - | 256 W/m² | - |
| 1787406884 | 25.56° C | 85% | 1017.3 hPa | 0 mm | - | 262 W/m² | - |
| 1787406579 | 25.56° C | 85% | 1017.2 hPa | 0 mm | - | 232 W/m² | - |
| 1787406275 | 25.56° C | 85% | 1017.4 hPa | 0 mm | - | 231 W/m² | - |
| 1787405971 | 25° C | 86% | 1017.2 hPa | 0 mm | - | 216 W/m² | - |
| 1787405668 | 25° C | 87% | 1017.1 hPa | 0 mm | - | 199 W/m² | - |
| 1787405362 | 24.44° C | 87% | 1017 hPa | 0 mm | - | 177 W/m² | - |
| 1787405058 | 23.89° C | 88% | 1017.2 hPa | 0 mm | - | 161 W/m² | - |
| 1787404753 | 23.89° C | 89% | 1017 hPa | 0 mm | - | 154 W/m² | - |
* Rain latest hour (hover to see other rain measurements)
** Current wind speed in m/s (hover to see current wind gust speed)